This is the latest recevied weather packets stored in our database for station/object K6TTR. If no packets are shown the sender has not sent any weather packets the latest 10 day(s).
| Time | Temp. | Humidity | Pressure | Rain* | Wind** | Luminosity | Snow |
|---|---|---|---|---|---|---|---|
| 1777688013 | 18.33° C | 45% | 1015.9 hPa | 0 mm | - | 39 W/m² | - |
| 1777687719 | 18.33° C | 44% | 1015.8 hPa | 0 mm | - | 40 W/m² | - |
| 1777687425 | 18.33° C | 44% | 1015.9 hPa | 0 mm | - | 42 W/m² | - |
| 1777687130 | 18.33° C | 44% | 1015.9 hPa | 0 mm | - | 47 W/m² | - |
| 1777686814 | 18.89° C | 43% | 1015.9 hPa | 0 mm | - | 54 W/m² | - |
| 1777686519 | 18.89° C | 42% | 1015.9 hPa | 0 mm | - | 60 W/m² | - |
| 1777686223 | 18.89° C | 41% | 1015.9 hPa | 0 mm | - | 67 W/m² | - |
| 1777685928 | 19.44° C | 40% | 1015.9 hPa | 0 mm | - | 79 W/m² | - |
| 1777685614 | 19.44° C | 39% | 1016 hPa | 0 mm | - | 91 W/m² | - |
| 1777685318 | 19.44° C | 38% | 1016.1 hPa | 0 mm | - | 97 W/m² | - |
| 1777685024 | 20° C | 36% | 1016.1 hPa | 0 mm | - | 97 W/m² | - |
| 1777684711 | 20° C | 32% | 1016.1 hPa | 0 mm | - | 97 W/m² | - |
| 1777684418 | 20.56° C | 30% | 1016.2 hPa | 0 mm | - | 100 W/m² | - |
| 1777684123 | 20.56° C | 28% | 1016.2 hPa | 0 mm | - | 104 W/m² | - |
| 1777683827 | 20.56° C | 29% | 1016.2 hPa | 0 mm | - | 111 W/m² | - |
| 1777683514 | 20.56° C | 27% | 1016.2 hPa | 0 mm | - | 121 W/m² | - |
| 1777683222 | 21.11° C | 26% | 1016.2 hPa | 0 mm | - | 139 W/m² | - |
| 1777682927 | 21.11° C | 26% | 1016.2 hPa | 0 mm | - | 162 W/m² | - |
| 1777682612 | 21.11° C | 26% | 1016.2 hPa | 0 mm | - | 153 W/m² | - |
| 1777682317 | 21.11° C | 27% | 1016.2 hPa | 0 mm | - | 163 W/m² | - |
| 1777682023 | 21.11° C | 26% | 1016.4 hPa | 0 mm | - | 186 W/m² | - |
| 1777681728 | 21.11° C | 26% | 1016.3 hPa | 0 mm | - | 221 W/m² | - |
| 1777681415 | 21.11° C | 28% | 1016.3 hPa | 0 mm | - | 243 W/m² | - |
| 1777681120 | 20.56° C | 27% | 1016.3 hPa | 0 mm | - | 274 W/m² | - |
| 1777680826 | 20.56° C | 25% | 1016.3 hPa | 0 mm | - | 206 W/m² | - |
* Rain latest hour (hover to see other rain measurements)
** Current wind speed in m/s (hover to see current wind gust speed)